• In Russia
  • List of Countries
  • For 7 days
  • Water Temperature
  • Satellite Maps
  • Weather Map
  • Weather Widgets
  • user-avatar
    Login

    Hourly Weather Neuquén

    Today, 26 September, Wednesday

    Time Temperature Precipitation Wind Pressure Humidity
    00:00 +13°C° 0 mm 4 mps 736 mmHg 32%
    01:00 +13°C° 0 mm 4 mps 736 mmHg 33%
    02:00 +12°C° 0 mm 4 mps 736 mmHg 32%
    03:00 +12°C° 0 mm 5 mps 736 mmHg 31%
    04:00 +12°C° 0 mm 5 mps 736 mmHg 30%
    05:00 +11°C° 0 mm 6 mps 737 mmHg 31%
    06:00 +11°C° 0 mm 7 mps 737 mmHg 31%
    07:00 +11°C° 0 mm 7 mps 738 mmHg 32%
    08:00 +11°C° 0 mm 8 mps 738 mmHg 33%
    09:00 +11°C° 0 mm 8 mps 738 mmHg 35%
    10:00 +12°C° 0 mm 8 mps 738 mmHg 37%
    11:00 +11°C° 0.2 mm 8 mps 738 mmHg 40%
    12:00 +11°C° 0.2 mm 8 mps 738 mmHg 43%
    13:00 +11°C° 0.2 mm 8 mps 738 mmHg 46%
    14:00 +11°C° 0.2 mm 7 mps 737 mmHg 51%
    15:00 +10°C° 0.2 mm 7 mps 737 mmHg 55%
    16:00 +9°C° 0.2 mm 7 mps 737 mmHg 59%
    17:00 +9°C° 0.3 mm 7 mps 737 mmHg 62%
    18:00 +9°C° 0.3 mm 7 mps 737 mmHg 65%
    19:00 +8°C° 0.3 mm 7 mps 737 mmHg 68%
    20:00 +8°C° 1.1 mm 7 mps 737 mmHg 72%
    21:00 +8°C° 1.1 mm 6 mps 737 mmHg 75%
    22:00 +7°C° 1.1 mm 6 mps 737 mmHg 79%
    23:00 +7°C° 1.2 mm 6 mps 736 mmHg 80%

    Tomorrow, 27 September, Thursday

    Time Temperature Precipitation Wind Pressure Humidity
    00:00 +7°C° 1.2 mm 6 mps 735 mmHg 82%
    01:00 +7°C° 1.2 mm 6 mps 735 mmHg 83%
    02:00 +7°C° 1.3 mm 6 mps 734 mmHg 85%
    03:00 +7°C° 1.3 mm 6 mps 734 mmHg 87%
    04:00 +7°C° 1.3 mm 6 mps 733 mmHg 88%
    05:00 +8°C° 1.1 mm 6 mps 733 mmHg 89%
    06:00 +8°C° 1.1 mm 5 mps 733 mmHg 89%
    07:00 +8°C° 1.1 mm 5 mps 733 mmHg 90%
    08:00 +9°C° 0.6 mm 5 mps 733 mmHg 88%
    09:00 +10°C° 0.6 mm 5 mps 733 mmHg 86%
    10:00 +10°C° 0.6 mm 5 mps 733 mmHg 84%
    11:00 +12°C° 0.6 mm 5 mps 732 mmHg 83%
    12:00 +12°C° 0.6 mm 5 mps 732 mmHg 82%
    13:00 +13°C° 0.6 mm 5 mps 731 mmHg 81%
    14:00 +13°C° 0.6 mm 5 mps 731 mmHg 82%
    15:00 +12°C° 0.6 mm 5 mps 730 mmHg 83%
    16:00 +12°C° 0.6 mm 5 mps 730 mmHg 84%
    17:00 +12°C° 0.5 mm 5 mps 730 mmHg 85%
    18:00 +12°C° 0.5 mm 5 mps 730 mmHg 87%
    19:00 +12°C° 0.5 mm 5 mps 730 mmHg 88%
    20:00 +11°C° 0.4 mm 6 mps 730 mmHg 89%
    21:00 +10°C° 0.4 mm 6 mps 730 mmHg 89%
    22:00 +10°C° 0.4 mm 6 mps 730 mmHg 90%
    23:00 +10°C° 0.9 mm 5 mps 729 mmHg 90%

    Day after tomorrow, 28 September, Friday

    Time Temperature Precipitation Wind Pressure Humidity
    00:00 +11°C° 0.9 mm 4 mps 729 mmHg 91%
    01:00 +11°C° 0.9 mm 3 mps 728 mmHg 91%
    02:00 +11°C° 0.2 mm 3 mps 728 mmHg 92%
    03:00 +13°C° 0.2 mm 2 mps 728 mmHg 92%
    04:00 +13°C° 0.2 mm 2 mps 727 mmHg 92%
    05:00 +13°C° 0 mm 2 mps 727 mmHg 89%
    06:00 +14°C° 0 mm 2 mps 727 mmHg 85%
    07:00 +14°C° 0 mm 2 mps 728 mmHg 81%
    08:00 +15°C° 0 mm 5 mps 727 mmHg 65%
    09:00 +17°C° 0 mm 8 mps 727 mmHg 48%
    10:00 +19°C° 0 mm 11 mps 727 mmHg 31%
    11:00 +21°C° 0 mm 11 mps 727 mmHg 28%
    12:00 +22°C° 0 mm 12 mps 726 mmHg 26%
    13:00 +23°C° 0 mm 13 mps 726 mmHg 23%
    14:00 +22°C° 0 mm 12 mps 726 mmHg 24%
    15:00 +22°C° 0 mm 11 mps 725 mmHg 25%
    16:00 +21°C° 0 mm 9 mps 725 mmHg 26%
    17:00 +20°C° 0 mm 8 mps 726 mmHg 29%
    18:00 +19°C° 0 mm 6 mps 726 mmHg 32%
    19:00 +17°C° 0 mm 5 mps 726 mmHg 35%
    20:00 +16°C° 0.1 mm 5 mps 726 mmHg 38%
    21:00 +15°C° 0.1 mm 5 mps 726 mmHg 42%
    22:00 +14°C° 0.1 mm 5 mps 726 mmHg 45%
    23:00 +14°C° 0.2 mm 4 mps 726 mmHg 49%

    29 September, Saturday

    Time Temperature Precipitation Wind Pressure Humidity
    00:00 +13°C° 0.2 mm 4 mps 725 mmHg 53%
    01:00 +12°C° 0.2 mm 4 mps 725 mmHg 57%
    02:00 +12°C° 1 mm 5 mps 725 mmHg 62%
    03:00 +12°C° 1 mm 5 mps 725 mmHg 67%
    04:00 +11°C° 1 mm 6 mps 724 mmHg 72%
    05:00 +11°C° 0.5 mm 6 mps 725 mmHg 68%
    06:00 +13°C° 0.5 mm 6 mps 725 mmHg 65%
    07:00 +12°C° 0.5 mm 7 mps 725 mmHg 62%
    08:00 +15°C° 0 mm 8 mps 725 mmHg 52%
    09:00 +16°C° 0 mm 9 mps 725 mmHg 43%
    10:00 +18°C° 0 mm 11 mps 724 mmHg 34%
    11:00 +18°C° 0 mm 12 mps 724 mmHg 31%
    12:00 +19°C° 0 mm 13 mps 724 mmHg 28%
    13:00 +19°C° 0 mm 14 mps 723 mmHg 25%
    14:00 +19°C° 0 mm 14 mps 723 mmHg 25%
    15:00 +18°C° 0 mm 14 mps 723 mmHg 25%
    16:00 +18°C° 0 mm 14 mps 723 mmHg 25%
    17:00 +15°C° 0 mm 14 mps 724 mmHg 29%
    18:00 +13°C° 0 mm 13 mps 725 mmHg 33%
    19:00 +10°C° 0 mm 12 mps 726 mmHg 36%
    20:00 +10°C° 0 mm 12 mps 726 mmHg 37%
    21:00 +9°C° 0 mm 12 mps 727 mmHg 37%
    22:00 +8°C° 0 mm 12 mps 727 mmHg 38%
    23:00 +7°C° 0 mm 12 mps 728 mmHg 38%

    30 September, Sunday

    Time Temperature Precipitation Wind Pressure Humidity
    00:00 +5°C° 0 mm 12 mps 728 mmHg 37%
    01:00 +5°C° 0 mm 12 mps 729 mmHg 37%
    02:00 +4°C° 0 mm 12 mps 729 mmHg 38%
    03:00 +4°C° 0 mm 11 mps 729 mmHg 38%
    04:00 +3°C° 0 mm 10 mps 730 mmHg 39%
    05:00 +4°C° 0 mm 11 mps 730 mmHg 37%
    06:00 +4°C° 0 mm 11 mps 731 mmHg 35%
    07:00 +4°C° 0 mm 12 mps 732 mmHg 33%
    08:00 +7°C° 0 mm 12 mps 732 mmHg 31%
    09:00 +8°C° 0 mm 11 mps 732 mmHg 28%
    10:00 +9°C° 0 mm 11 mps 732 mmHg 25%
    11:00 +9°C° 0 mm 11 mps 732 mmHg 25%
    12:00 +11°C° 0 mm 11 mps 732 mmHg 24%
    13:00 +11°C° 0 mm 11 mps 731 mmHg 23%
    14:00 +11°C° 0 mm 11 mps 732 mmHg 24%
    15:00 +9°C° 0 mm 12 mps 732 mmHg 25%
    16:00 +9°C° 0 mm 12 mps 732 mmHg 27%
    17:00 +8°C° 0 mm 11 mps 733 mmHg 28%
    18:00 +7°C° 0 mm 10 mps 734 mmHg 30%
    19:00 +6°C° 0 mm 9 mps 735 mmHg 32%
    20:00 +6°C° 0 mm 9 mps 736 mmHg 34%
    21:00 +5°C° 0 mm 8 mps 737 mmHg 36%
    22:00 +4°C° 0 mm 7 mps 737 mmHg 38%
    23:00 +4°C° 0 mm 7 mps 737 mmHg 40%

    1 October, Monday

    Time Temperature Precipitation Wind Pressure Humidity
    00:00 +3°C° 0 mm 6 mps 737 mmHg 42%
    01:00 +3°C° 0 mm 6 mps 738 mmHg 43%
    02:00 +3°C° 0 mm 5 mps 738 mmHg 44%
    03:00 +2°C° 0 mm 5 mps 738 mmHg 45%
    04:00 +2°C° 0 mm 5 mps 738 mmHg 45%
    05:00 +3°C° 0 mm 6 mps 739 mmHg 43%
    06:00 +3°C° 0 mm 7 mps 739 mmHg 42%
    07:00 +4°C° 0 mm 8 mps 740 mmHg 40%
    08:00 +5°C° 0 mm 8 mps 740 mmHg 34%
    09:00 +6°C° 0 mm 8 mps 740 mmHg 29%
    10:00 +8°C° 0 mm 7 mps 740 mmHg 24%
    11:00 +9°C° 0 mm 7 mps 740 mmHg 21%
    12:00 +10°C° 0 mm 6 mps 739 mmHg 19%
    13:00 +10°C° 0 mm 6 mps 739 mmHg 17%
    14:00 +11°C° 0 mm 6 mps 739 mmHg 17%
    15:00 +12°C° 0 mm 5 mps 738 mmHg 17%
    16:00 +12°C° 0 mm 5 mps 738 mmHg 17%
    17:00 +11°C° 0 mm 4 mps 739 mmHg 20%
    18:00 +10°C° 0 mm 3 mps 739 mmHg 23%
    19:00 +10°C° 0 mm 2 mps 739 mmHg 27%
    20:00 +9°C° 0 mm 3 mps 739 mmHg 30%
    21:00 +9°C° 0 mm 3 mps 739 mmHg 34%
    22:00 +8°C° 0 mm 3 mps 740 mmHg 38%
    23:00 +8°C° 0 mm 3 mps 739 mmHg 41%
    Show more